Probability
0 0 0 0 0 0 0 0 1 2 3 6 12 21 27 29 29 29 26 23 25 27 26 26 25 23 23 25 27 27 27 25 21 18 17 14 11 9 7 6 5 4 5 5
0 0 0 0 0 0 0 1 1 2 3 6 13 22 29 32 33 30 27 26 27 29 30 31 30 29 29 29 30 29 28 26 22 19 16 14 12 10 9 6 5 5 6 7
0 0 0 0 0 1 2 4 4 4 5 9 17 26 32 35 36 33 30 29 31 34 37 38 37 36 36 36 35 32 27 24 22 19 17 14 13 11 9 7 6 6 7 7
0 0 0 0 1 3 6 8 9 9 11 16 23 31 36 37 37 35 35 35 37 40 43 44 42 41 41 40 38 33 27 23 22 21 19 16 14 12 9 7 7 6 6 6
0 0 0 1 4 7 11 14 16 19 20 24 31 37 39 38 38 39 42 44 45 45 48 48 48 46 43 40 37 31 27 25 25 23 20 17 14 11 9 7 6 6 6 6
0 0 1 4 7 10 14 19 22 25 28 30 35 37 37 39 41 43 48 51 50 47 47 48 48 46 42 38 33 27 24 24 24 21 18 16 13 11 8 7 6 6 6 6
0 1 3 7 10 11 13 19 24 28 31 31 33 35 37 40 43 45 49 51 49 45 43 43 43 42 38 33 29 24 21 21 21 18 16 14 13 10 8 7 6 6 6 5
1 2 6 10 12 11 13 20 26 29 31 31 32 35 37 40 43 45 47 47 44 41 38 38 39 38 34 29 25 22 21 19 18 16 15 14 12 9 7 6 6 6 5 4
9 11 14 16 17 16 18 25 30 30 31 33 34 34 35 37 40 42 43 43 41 38 36 36 36 35 32 28 25 22 19 17 16 16 14 13 11 9 7 6 6 6 4 4
21 25 26 26 26 25 27 32 34 33 32 34 35 33 33 35 38 39 39 38 37 36 35 33 33 34 31 28 26 23 18 14 14 16 15 13 10 8 7 6 6 5 4 3
29 31 32 33 33 32 33 36 37 37 35 35 34 33 33 35 36 37 36 35 35 35 34 32 33 33 30 27 25 23 18 15 15 16 15 12 9 7 5 5 5 4 3 3
25 26 30 34 34 33 34 36 39 40 37 34 33 34 35 36 37 39 39 37 37 36 34 32 31 30 28 25 23 21 19 17 16 16 14 11 7 4 3 2 2 1 2 2
18 21 27 32 34 32 32 33 36 38 36 33 31 32 34 35 38 41 42 41 39 37 34 30 28 28 27 25 22 21 20 19 18 16 13 9 6 4 2 1 0 0 1 1
15 16 22 30 32 31 28 28 29 28 28 28 27 28 29 32 36 38 40 40 39 37 34 30 28 27 26 24 23 23 23 21 19 16 12 8 6 5 3 1 0 0 0 0
13 12 15 23 28 27 25 23 20 18 17 19 22 24 25 29 32 32 34 35 36 36 35 32 28 26 24 23 23 23 22 21 17 14 10 7 5 4 3 1 0 0 0 0
8 8 10 16 21 21 18 15 13 11 11 13 18 22 25 27 28 28 28 30 31 32 33 30 25 23 22 22 21 20 18 17 13 9 7 5 4 3 2 0 0 0 0 0
5 6 8 12 15 14 12 10 9 9 10 11 16 21 24 26 26 26 25 26 26 27 29 27 23 20 20 20 18 15 13 12 9 6 4 4 3 3 2 1 0 0 0 0
4 5 6 8 9 8 8 9 9 9 10 11 14 19 21 23 24 24 24 25 25 26 25 23 20 17 15 16 14 11 8 7 4 3 2 2 3 3 2 1 0 0 0 0
3 4 6 6 5 4 5 7 9 9 9 10 13 16 19 20 21 23 24 25 26 25 22 19 14 11 9 9 9 7 5 4 2 1 1 1 1 2 1 0 0 0 0 0
4 5 6 6 5 4 4 5 7 8 9 10 11 12 16 18 19 21 22 24 24 22 18 13 8 5 5 5 5 5 4 3 2 1 0 0 0 1 1 1 0 0 0 0
6 7 7 6 6 5 5 6 7 8 9 10 9 8 11 15 19 21 21 20 17 16 13 8 4 3 3 3 3 3 3 4 3 2 0 0 0 0 1 1 0 0 0 0
6 7 7 7 7 6 6 6 8 9 10 9 8 7 8 13 19 22 21 16 11 10 9 6 4 3 3 3 3 3 4 4 3 1 0 0 0 0 1 1 0 0 0 0
5 6 8 8 8 7 6 6 8 9 9 8 7 7 7 10 16 20 19 13 8 7 7 6 4 3 3 3 3 3 3 2 1 0 0 0 0 0 0 0 0 0 0 0
6 7 9 9 9 8 6 5 6 6 6 5 5 5 5 7 11 15 14 10 6 6 6 4 2 1 2 3 3 1 1 1 0 0 0 0 0 0 1 1 0 0 0 0
6 7 8 8 8 6 5 4 4 4 4 3 3 3 3 3 7 10 9 7 5 4 3 1 0 0 1 2 3 1 0 0 0 0 0 0 0 1 2 2 1 0 0 0
4 4 4 4 4 3 3 2 2 2 2 2 2 1 1 2 5 7 7 6 5 3 1 0 0 0 0 1 2 1 0 0 0 0 0 0 0 1 2 3 2 1 0 0
3 3 2 1 1 1 1 1 1 1 1 1 1 0 0 2 5 7 7 6 5 2 0 0 0 0 0 0 1 1 0 0 0 0 0 0 0 0 1 3 3 2 1 0
Wind_Speed
4 4 2 3 5 3 4 8 8 8 8 9 10 10 9 9 8 9 10 10 11 10 8 8 8 8 8 7 7 7 7 6 5 5 5 4 3 3 3 3 4 3 3 3
1 2 2 3 5 4 3 4 6 5 5 7 6 6 8 10 11 10 11 11 10 10 9 9 10 9 8 8 7 7 7 6 6 5 5 4 4 4 4 4 4 4 4 4
2 3 3 4 5 4 3 3 7 8 9 6 6 9 11 11 11 11 11 11 10 10 9 9 9 10 9 8 7 7 7 7 6 6 6 5 5 5 4 4 4 4 4 4
1 2 4 10 4 3 3 2 3 4 6 8 9 9 7 9 10 10 10 10 10 9 9 7 7 8 8 8 8 7 6 6 6 6 6 5 5 5 4 4 4 3 3 4
3 2 5 8 4 2 3 2 1 4 5 6 7 6 2 3 7 10 10 10 10 10 9 9 9 9 9 8 7 7 6 5 5 6 6 6 6 5 4 4 4 3 3 3
4 3 5 7 6 2 6 1 3 4 7 7 7 6 4 5 7 7 8 8 9 9 9 10 9 9 9 8 7 7 6 6 5 6 6 6 6 5 4 4 4 4 4 3
4 3 7 7 6 3 5 6 3 3 6 7 5 6 6 7 7 8 9 8 9 10 9 8 9 10 9 7 6 6 5 5 6 5 5 6 5 5 5 5 5 4 4 2
4 3 7 6 3 3 6 4 3 4 4 5 5 6 7 7 7 9 9 8 8 8 7 7 8 9 9 7 5 5 6 6 6 5 5 5 5 5 5 6 5 4 3 2
6 7 6 3 1 2 4 5 3 3 4 6 7 6 7 7 7 8 8 8 7 8 8 6 6 8 9 7 7 7 6 6 6 5 4 5 6 6 5 5 4 4 3 3
1 2 4 4 3 2 2 4 4 5 6 6 6 6 7 7 6 7 7 7 7 8 8 7 6 6 7 7 8 8 7 6 6 6 5 4 4 4 4 4 5 4 4 3
0 3 5 6 4 2 2 4 5 5 5 6 7 6 6 6 6 8 7 6 7 7 8 7 6 6 6 7 8 8 7 6 6 5 5 4 3 2 3 3 5 6 5 5
3 4 2 4 4 2 3 3 4 6 5 4 5 5 5 5 5 7 7 6 7 7 7 6 6 6 5 6 8 8 7 6 5 5 4 4 4 3 6 3 2 4 5 6
4 3 2 3 4 2 1 2 4 5 5 5 4 4 5 5 4 5 6 7 7 7 7 6 6 5 5 6 7 8 8 7 6 5 5 5 4 5 3 3 5 3 4 6
1 1 3 3 2 2 2 3 5 5 4 5 5 4 4 5 5 5 5 6 6 6 6 6 6 5 5 6 7 6 7 7 6 5 6 5 5 5 5 5 3 1 1 4
2 0 1 2 1 2 3 3 4 3 3 3 4 4 5 5 4 4 4 5 6 6 5 6 6 5 5 6 7 7 6 5 5 5 5 5 5 4 4 5 4 3 2 1
2 4 4 3 1 2 3 2 3 2 2 3 2 2 4 5 5 5 5 6 7 6 6 6 6 5 6 7 7 6 5 7 6 5 5 5 5 5 5 5 4 4 4 4
1 1 2 2 1 0 1 2 3 3 2 2 2 2 4 5 5 5 5 5 5 5 5 6 5 5 6 6 6 5 4 5 7 5 4 5 5 5 5 5 5 4 4 5
3 3 3 2 2 1 1 2 4 3 2 2 2 3 5 5 6 5 5 4 4 3 3 4 5 6 5 5 5 4 4 4 4 4 4 4 4 5 5 5 5 5 3 4
2 2 2 1 2 3 3 3 3 3 2 1 2 3 3 4 5 5 4 5 5 5 4 5 7 6 5 6 6 4 5 5 4 4 3 4 4 4 4 5 5 5 5 4
3 3 2 1 1 3 3 2 2 2 1 2 4 4 3 2 4 5 5 4 4 4 5 5 6 5 5 5 5 4 4 5 5 4 4 4 4 4 4 4 5 5 5 5
3 3 2 2 1 1 2 2 3 2 1 3 4 4 3 2 3 4 4 2 2 3 5 7 5 4 4 5 5 4 4 4 4 4 4 4 4 4 4 4 4 4 4 4
2 3 3 3 3 2 1 1 2 3 3 3 4 4 4 3 3 2 2 3 3 5 4 4 3 5 6 6 4 4 4 4 4 3 3 4 4 4 4 4 4 4 4 4
2 3 2 2 3 2 2 2 2 2 2 2 3 4 4 3 3 3 2 1 3 5 4 3 4 6 7 4 3 3 4 4 4 4 4 4 4 4 4 4 4 4 4 4
2 2 2 2 3 4 3 2 1 1 1 1 2 3 3 2 1 1 2 4 6 6 3 4 6 7 6 3 3 3 3 3 3 3 3 4 4 3 3 4 3 3 3 4
1 1 2 2 2 1 0 1 1 1 1 1 1 1 1 2 3 2 3 4 6 6 3 4 7 6 4 3 3 3 3 3 3 3 3 3 3 3 3 4 3 3 3 4
0 0 0 1 1 1 1 1 1 0 1 1 0 0 0 1 2 3 3 4 5 5 4 3 3 4 2 2 2 2 2 2 2 2 3 3 3 3 3 3 4 3 4 4
1 1 1 1 1 0 1 1 1 1 1 1 1 0 1 2 3 3 4 4 4 4 3 3 3 3 2 2 2 2 2 2 2 2 2 2 3 3 3 4 3 3 3 3
Wind_Direction
211 230 211 236 253 238 182 181 181 210 199 211 197 177 168 162 160 155 149 154 156 155 157 156 152 151 147 145 146 146 141 141 145 137 127 121 115 110 98 94 92 85 74 62
309 315 311 279 269 253 228 186 178 171 219 222 193 159 157 163 160 158 158 161 158 156 158 158 155 153 150 149 148 143 145 148 146 137 132 129 125 115 100 88 82 77 71 69
275 319 30 276 243 222 223 205 172 193 215 184 162 172 173 169 159 159 163 159 156 158 160 160 157 153 152 150 144 142 145 149 148 144 142 143 137 121 114 105 94 85 78 75
122 60 219 243 243 187 182 244 187 180 185 171 168 176 169 164 159 161 160 157 156 156 156 155 148 142 139 135 138 142 144 148 152 150 148 141 131 128 121 114 108 100 86 79
123 169 271 290 285 162 141 301 255 148 143 136 138 104 78 170 162 159 163 162 158 158 153 145 142 141 134 133 136 139 144 149 152 152 149 146 143 140 137 125 113 106 101 91
138 161 221 251 282 262 102 328 290 148 148 144 130 132 208 192 161 143 143 147 148 145 139 138 141 138 133 139 143 153 156 154 151 150 150 152 152 145 138 129 126 118 100 94
164 199 253 262 293 57 119 218 238 160 151 150 159 180 179 160 150 139 135 137 142 140 140 144 142 137 139 144 158 160 148 141 139 142 145 147 142 137 134 130 125 118 111 96
156 183 251 293 8 136 199 196 157 129 130 130 129 125 128 130 133 129 128 127 130 132 132 135 140 140 143 155 161 146 137 134 137 139 141 137 136 134 136 137 134 132 122 103
181 209 244 292 180 202 151 128 130 128 120 121 122 128 127 127 132 135 134 132 133 135 132 134 143 148 151 162 155 145 137 137 139 135 130 137 142 144 143 146 147 149 145 143
133 294 311 342 16 27 94 129 128 125 119 112 120 133 133 135 136 137 135 138 138 140 141 149 155 157 160 157 152 146 146 144 142 139 135 133 137 146 152 159 158 157 160 167
35 309 351 351 353 3 69 95 104 104 107 124 127 136 141 141 145 146 146 148 143 148 150 154 153 155 158 154 149 147 149 148 145 143 144 135 121 124 157 170 176 171 178 174
229 247 212 283 311 353 80 95 113 111 98 97 120 134 137 142 147 145 143 141 141 147 148 150 152 156 159 159 154 151 153 154 154 151 146 140 130 89 49 73 124 164 171 167
217 255 240 271 327 357 82 97 98 104 113 105 97 109 123 131 133 134 137 143 151 157 156 154 156 161 165 163 159 160 163 164 161 159 157 156 155 147 129 52 55 87 148 158
256 55 357 332 330 11 63 84 89 85 90 105 107 102 111 118 123 133 149 155 150 149 151 152 156 168 171 165 162 163 161 166 166 167 165 165 169 165 159 156 147 78 73 161
320 68 247 287 359 66 84 91 97 96 100 100 109 116 122 124 146 159 160 147 138 141 150 154 161 174 172 164 162 162 162 167 167 164 163 162 164 166 163 161 156 154 140 145
340 5 1 348 3 84 90 99 123 130 133 131 120 134 142 150 157 157 151 148 149 159 166 167 173 180 172 161 158 162 164 164 160 157 160 161 162 165 167 165 165 170 179 181
130 336 314 299 296 110 135 149 154 160 165 151 165 160 136 134 132 143 151 155 158 168 170 172 175 173 162 159 158 163 160 160 158 155 165 168 167 172 171 171 176 185 195 188
169 180 199 184 185 171 142 125 122 126 135 171 183 135 126 137 146 157 156 144 136 145 166 169 160 154 153 154 153 153 155 157 160 161 169 170 172 172 170 174 179 183 185 180
145 125 108 114 174 154 133 122 122 121 135 143 112 121 132 142 141 140 136 137 149 167 184 166 152 150 153 154 150 151 154 156 158 162 171 173 172 172 174 178 179 180 178 175
80 72 95 109 130 123 112 103 100 97 96 107 109 104 104 126 132 138 139 154 182 183 169 156 153 154 157 158 149 151 159 166 171 171 175 178 178 177 176 175 174 174 178 179
76 78 77 60 46 89 104 119 124 121 125 123 124 132 136 144 146 140 137 151 199 161 151 154 154 155 156 156 153 153 161 165 169 170 173 175 172 171 173 173 174 177 183 186
85 94 83 65 75 80 88 120 128 140 141 141 137 139 141 147 142 131 152 174 175 157 151 156 156 156 156 152 154 157 164 165 167 167 168 169 167 167 170 171 174 181 184 186
81 91 85 74 79 75 59 69 97 120 133 144 145 153 160 167 158 149 166 191 150 153 151 157 150 148 151 146 150 158 161 165 170 172 174 174 171 170 174 177 181 181 182 185
76 77 71 70 76 70 46 13 37 88 124 133 161 167 159 147 136 172 161 153 150 148 146 148 146 148 147 145 148 154 157 165 172 176 181 178 174 175 175 176 180 182 183 181
78 70 72 76 76 85 91 357 30 40 76 107 153 182 173 162 165 170 149 148 149 141 130 145 151 155 150 145 150 151 150 157 164 164 170 173 175 179 182 182 180 176 172 170
43 174 175 171 177 187 191 159 139 168 119 106 83 145 125 124 134 135 132 136 139 138 133 137 147 151 143 142 144 144 139 140 147 153 157 159 162 165 170 169 165 164 163 164
9 23 48 4 317 209 165 147 152 170 162 146 130 69 100 115 123 129 128 129 132 130 127 130 137 143 140 139 136 132 129 132 133 134 143 146 145 148 154 151 148 144 142 140